{"data":{"norad_id":66255,"intl_designator":"2025-245X","name":"STARLINK-35616","alt_names":[],"object_type":"PAYLOAD","status":"ACTIVE","operator":null,"country":"US","launch_date":"2025-10-29","launch_site_code":"AFETR","launch_vehicle":null,"mission":null,"orbit_class":"UNKNOWN","rcs_meters":null,"size_class":null,"mass_kg":null,"dimensions":null,"purposes":["comms"],"wikipedia_slug":null,"has_3d_model":false,"image_url":null,"decayed_at":null,"tle_current":{"epoch":"2026-09-20T22:05:56.845248Z","epoch_age_seconds":60351,"freshness":"FRESH","line1":"1 66255U 25245X   26263.92079682  .00024179  00000+0  72437-3 0  9992","line2":"2 66255  53.1583  95.9036 0000946  94.0579 266.0532 15.34403427 51166","mean_motion":15.34403427,"eccentricity":9.46e-5,"inclination_deg":53.1583,"raan_deg":95.9036,"arg_perigee_deg":94.0579,"mean_anomaly_deg":266.0532,"bstar":0.00072437,"rev_number":5116,"period_min":93.847548477875,"perigee_km":462.0459119367,"apogee_km":463.34019698301,"semimajor_km":6840.8300544599,"source":"CELESTRAK","updated_at":"2026-09-21T09:00:35.850292Z"}}}